DELTA 1 DEB, 10842

Orbit data source: Space-Track

DELTA 1 DEB, 10842 is space debris in SSO originally from a launch on Thu, 29 Jul 1976 UTC launched from the Air Force Western Test Range (AFWTR). Debris objects in space refer to the collection of defunct objects orbiting the Earth. Examples of debris include non-operational satellites, rocket bodies, and fragments generated from explosions, collisions, or faulty payload assembly.

Loading next visibility...
Identifier
10842, 1976-077CN
Orbit
SSO
Country
Flag of USUS
Related business
Manufacturer
Unknown
Mission
Spacecraft
Bus & Motor
Unknown
Mass
Unknown
Launch date (UTC)
1976-07-29 (50 years ago)
Launch vehicle
Unknown
Launch site
Air Force Western Test Range (AFWTR)
Object type
Payload
Rocket body
Debris
Shape & HBR
Unknown shape, 0.1 m
Radar Cross Section
Medium (>0.1 m² and <1 m²)

Expand to show TLE details & history
Last TLE update: 16 hours ago

TLE from 16 hours ago
0 DELTA 1 DEB
1 10842U 76077CN  26033.38683214 -.00000070  00000-0 -10092-3 0  9995
2 10842 102.1837 187.8256 0285622 306.8534  77.2432 12.58973680137702
Epoch: 2026-02-02T09:17Z
TLE epoch observation values (Epoch: 2026-02-02T09:17:02.296Z)
Latitude
26.68439°
Longitude
-90.21568°
Altitude
1,387.01 km
Speed
7.188 km/s
True Right ascension
12h 06m 30s
True Declination
26° 33' 28"
Sunlit
Object was in full shadow at epoch
Visualization orbit readout
Latitude
Unknown
Longitude
Unknown
Altitude
Unknown
Speed
Unknown
Apparent Right ascension
Unknown
Apparent Declination
Unknown
Sunlit
N/A
Visualization observer readout
Local Sidereal Time
02:47:13
Azimuth
Unknown
Elevation
Unknown
Doppler factor
Unknown
Orbital elements
Apogee altitude
1,647.609 km
Perigee altitude
1,201.874 km
Semi-major axis
7,802.879 km
Eccentricity
0.02856
Inclination
102.1837°
RAAN
187.8256°
Arg. of periapsis
306.8534°
True anomaly
80.45906°
Mean anomaly
77.2432°
Eccentric anomaly
78.8488°
Mean motion
3.14891 °/min
Orbital period
114.33 mins
BSTAR
-0.00010092
Loading maneuver chart data...
Computing Atmospheric mass density...
Loading historical data...
Loading historical data...
Loading historical data...
Loading historical data...
Loading historical data...
Loading historical data...
Loading historical data...

Documentation

Showing up to 5 results
|